Regional Weather Roundup
Issued by NWS Northern Indiana

Home | Current Version | Previous Version | Text Only | Print | Product List | Glossary Off
Versions: 1 2 3 4 5 6 7 8 9 10 11 12 13 14 15 16 17 18 19 20 21 22 23 24 25 26 27 28 29 30 31 32 33 34 35 36 37 38 39 40 41 42 43 44 45 46 47 48 49 50

012
ASUS43 KIWX 141710
RWRIWX

KIWX WEATHER ROUNDUP
NATIONAL WEATHER SERVICE NORTHERN INDIANA
1200 PM EST THU DEC 14 2017

NOTE: "FAIR" INDICATES FEW OR NO CLOUDS BELOW 12,000 FEET WITH NO
SIGNIFICANT WEATHER AND/OR OBSTRUCTIONS TO VISIBILITY.

* THESE STATIONS ARE NOT UNDER NWS QUALITY CONTROL. THEY ALSO MAY NOT
  REPORT WEATHER SUCH AS PRECIPITATION OR FOG.

INZ001>027-141800-
NORTHERN INDIANA

CITY           SKY/WX    TMP DP  RH WIND       PRES   REMARKS
GARY*          PTSUNNY   25  16  68 W7        30.09S WCI  17
VALPARAISO     LGT SNOW  22  16  78 S3        30.07F
MICHIGAN CITY* LGT SNOW  21  14  73 S5        30.08F WCI  15
LAPORTE*       LGT SNOW  19  12  74 CALM      30.08F
KNOX*          CLOUDY    21  14  73 CALM      30.08S
SOUTH BEND     CLOUDY    18  11  74 S7        30.08S WCI   9
ELKHART*       CLOUDY    19  10  68 SW7       30.07R WCI  10
GOSHEN         CLOUDY    18   9  68 CALM      30.06S
MONTICELLO*    CLOUDY    25  12  56 NE3       30.07S
LOGANSPORT*    MOSUNNY   25  12  58 N5        30.07F WCI  19
ROCHESTER*     PTSUNNY   25  10  54 CALM      30.07F
WARSAW*        CLOUDY    21   5  49 E3        30.06S
AUBURN*        CLOUDY    21   9  58 NE5       30.05F WCI  15
FORT WAYNE     CLOUDY    21   9  59 CALM      30.06F
HUNTINGTON*    CLOUDY    21   8  57 CALM      30.06S
PERU/GRISSOM   PTSUNNY   25  13  60 NE3       30.05S
MARION*        MOSUNNY   25  13  59 NE8       30.06S WCI  16

$$
INZ028>050-141800-
CENTRAL INDIANA

CITY           SKY/WX    TMP DP  RH WIND       PRES   REMARKS
LAFAYETTE      SUNNY     28  12  51 VRB5      30.07S WCI  23
KOKOMO*        MOSUNNY   26  12  55 NE12      30.05F WCI  16
MUNCIE*        MOSUNNY   26  15  63 N6        30.04F WCI  19
INDIANAPOLIS   PTSUNNY   29  12  49 N8        30.06R WCI  21

$$
MIZ043>046-050>051-056>058-064>065-071>073-077>080-141800-
SOUTHWEST LOWER MICHIGAN

CITY           SKY/WX    TMP DP  RH WIND       PRES   REMARKS
BATTLE CREEK   SUNNY     20   8  60 CALM      30.03F
BENTON HARBOR  CLOUDY    20  10  65 S9        30.07R HAZE    WCI   9
COLDWATER*     SUNNY     18   7  62 CALM      30.03F
HILLSDALE*     SUNNY     19   5  53 CALM      30.01S
HOLLAND        LGT SNOW  18  12  77 S7        30.05S WCI   9
GRAND RAPIDS   FLURRIES  20  10  65 CALM      30.03S
KALAMAZOO      CLOUDY    17   8  67 CALM      30.04S
STURGIS*         N/A    N/A N/A N/A MISG        N/A
THREE RIVERS*  CLOUDY    19   8  61 CALM      30.06R

$$
OHZ001>008-015>018-024>025-141800-
NORTHWEST OHIO

CITY           SKY/WX    TMP DP  RH WIND       PRES   REMARKS
WAUSEON*       FAIR      18   7  62 NW6       30.04F WCI   9
DEFIANCE       MOSUNNY   15   7  70 CALM      30.07S
FINDLAY        CLOUDY    18   9  68 W6        30.04S WCI  10
TOLEDO EXPRESS SUNNY     18   6  59 NW5       30.05F WCI  11
TOLEDO METCALF SUNNY     19   5  54 NW7       30.06S WCI  10
LIMA           CLOUDY    19  13  77 NW6       30.02F WCI  11

$$
AND FOR LAKE MICHIGAN COASTAL AND OPEN LAKE BUOY OBSERVATIONS

STATION/POSITION TEMP    WIND        PRES    VSBY  WAVE
                 AIR SEA DIR/SP/G                  HT/PER
                 (F)     (DEG/KT/KT) (MB)    (MI)  (FT/S)
CALUMET HARBOR    24     270/  3/  6 1017.7F
MICHIGAN CITY     20     150/ 11/ 12   N/A
BURNS HARBOR      24     190/  7/ 12 1018.6S
SAINT JOSEPH      22     190/  4/  8 1018.6

$$
&&




USA.gov is the U.S. government's official web portal to all federal, state and local government web resources and services.